Terminal Aerodrome Forecast
Issued by NWS Knoxville/Tri Cities, TN

Home | Current Version | Previous Version | Text Only | Print | Product List | Glossary On
Versions: 1 2 3 4 5 6 7 8 9 10 11 12 13 14 15 16 17 18 19 20 21 22 23 24 25 26 27 28 29 30 31 32
000
FTUS44 KMRX 020521
TAFTYS
TAF
KTYS 020521Z 0206/0306 00000KT P6SM SKC
     FM021000 00000KT 6SM BR SKC
     FM021300 22004KT P6SM SCT040
     FM030000 18005KT P6SM SCT060 SCT250=

USA.gov is the U.S. government's official web portal to all federal, state and local government web resources and services.